Location: Caltech
(34.1382°N, 118.1253°W)
Time: 20:44:50
(UTC-07:00)

ASTRO E2 - Visible Passes

Search period start: 31 July 2014 00:00
Search period end: 10 August 2014 00:00
Orbit: 535 x 542 km, 31.4° (Epoch: 31 July)

Date Brightness Start Highest point End Pass type
(mag) Time Alt. Az. Time Alt. Az. Time Alt. Az.
31 Jul 5.1 03:22:08 17° ESE 03:22:08 17° ESE 03:23:08 10° ESE visible
31 Jul 3.4 04:57:31 20° WSW 04:59:52 37° SSW 05:03:42 10° SE visible
01 Aug 3.6 04:48:20 26° SW 04:49:36 31° SSW 04:53:17 10° SE visible
02 Aug 3.8 04:39:21 26° SSW 04:39:21 26° SSW 04:42:48 10° SE visible
03 Aug 4.6 04:30:35 18° S 04:30:35 18° S 04:32:13 10° SSE visible
05 Aug 4.5 21:12:13 10° SSW 21:14:10 18° S 21:14:10 18° S visible
06 Aug 3.9 21:01:33 10° SSW 21:04:53 24° SSE 21:05:12 24° SSE visible
07 Aug 3.7 20:50:59 10° SW 20:54:33 29° SSE 20:56:01 23° SE visible
07 Aug 5.6 22:31:15 10° WSW 22:31:24 11° WSW 22:31:24 11° WSW visible
08 Aug 3.5 20:40:30 10° SW 20:44:14 34° SSE 20:46:39 18° ESE visible
08 Aug 5.1 22:20:58 10° WSW 22:22:01 17° WSW 22:22:01 17° WSW visible
09 Aug 3.4 20:30:05 10° SW 20:33:55 39° SSE 20:37:07 14° E visible
09 Aug 4.6 22:10:41 10° W 22:12:29 24° WSW 22:12:29 24° WSW visible
